Quakertown, PA

11:07 PM EDT on August 23, 2019 (GMT -0400)
Quakertown

Weather History for KUKT - July, 2019

Change the Weather History Date:

Tuesday, July 16, 2019

  Actual Average (KABE) Record (KABE)
Temperature  
Mean Temperature 74 °F -  
Max Temperature 89 °F 85 °F 101 °F (1988)
Min Temperature 60 °F 64 °F 50 °F (1946)
Cooling Degree Days 10    
Growing Degree Days 24 (Base 50)    
Moisture  
Dew Point 67 °F    
Average Humidity 76    
Maximum Humidity 100    
Minimum Humidity 46    
Precipitation  
Precipitation 0.09 in - - ()
Sea Level Pressure  
Sea Level Pressure 30.08 in    
Wind  
Wind Speed 2 mph (SW)    
Max Wind Speed 17 mph    
Max Gust Speed 24 mph    
Visibility 10 miles    
Events      
Averages and records for this station are not official NWS values.
T = Trace of Precipitation, MM = Missing Value Source: NWS Daily Summary

Daily Weather History Graph

Daily Weather History Graph

Search for Another Location

Airport or City:

Astronomy

Jul. 16, 2019 Rise Set
Actual Time 5:44 AM EDT 8:30 PM EDT
Civil Twilight 5:12 AM EDT 9:02 PM EDT
Nautical Twilight 4:32 AM EDT 9:42 PM EDT
Astronomical Twilight 3:46 AM EDT 10:28 PM EDT
Moon 8:34 PM EDT (7/16) 5:20 AM EDT (7/16)
Length of Visible Light 15h 49m
Length of Day
14h 45m
Full, 100% of the Moon is Illuminated
Jul 16
Full
Jul 16
Full
Jul 24
Last Quarter
Jul 31
New
Aug 7
First Quarter

Hourly Weather History & Observations

Time (EDT) Temp. Heat Index Dew Point Humidity Pressure Visibility Wind Dir Wind Speed Gust Speed Precip Events Conditions
12:00 AM 66.2 °F - 64.4 °F 94% 30.10 in 10.0 mi Calm Calm - N/A   Clear
12:15 AM 66.2 °F - 64.4 °F 94% 30.09 in 10.0 mi Calm Calm - N/A   Clear
12:20 AM 66.2 °F - 64.4 °F 94% 30.09 in 10.0 mi Calm Calm - N/A   Clear
12:35 AM 66.2 °F - 64.4 °F 94% 30.09 in 10.0 mi Calm Calm - N/A   Clear
12:40 AM 66.2 °F - 64.4 °F 94% 30.09 in 10.0 mi Calm Calm - N/A   Clear
12:55 AM 64.4 °F - 64.4 °F 100% 30.09 in 10.0 mi Calm Calm - N/A   Clear
1:00 AM 64.4 °F - 64.4 °F 100% 30.09 in 10.0 mi Calm Calm - N/A   Clear
1:15 AM 64.4 °F - 64.4 °F 100% 30.10 in 10.0 mi Calm Calm - N/A   Clear
1:35 AM 64.4 °F - 64.4 °F 100% 30.09 in 10.0 mi Calm Calm - N/A   Clear
1:40 AM 64.4 °F - 64.4 °F 100% 30.09 in 10.0 mi Calm Calm - N/A   Clear
1:55 AM 64.4 °F - 64.4 °F 100% 30.09 in 10.0 mi Calm Calm - N/A   Clear
2:00 AM 64.4 °F - 64.4 °F 100% 30.09 in 10.0 mi Calm Calm - N/A   Clear
2:15 AM 64.4 °F - 64.4 °F 100% 30.09 in 10.0 mi Calm Calm - N/A   Clear
2:20 AM 64.4 °F - 64.4 °F 100% 30.09 in 10.0 mi Calm Calm - N/A   Clear
2:35 AM 64.4 °F - 64.4 °F 100% 30.09 in 10.0 mi Calm Calm - N/A   Clear
2:40 AM 64.4 °F - 64.4 °F 100% 30.09 in 10.0 mi Calm Calm - N/A   Clear
2:55 AM 64.4 °F - 64.4 °F 100% 30.08 in 10.0 mi Calm Calm - N/A   Clear
3:15 AM 62.6 °F - 62.6 °F 100% 30.08 in 10.0 mi Calm Calm - N/A   Clear
3:20 AM 62.6 °F - 62.6 °F 100% 30.08 in 10.0 mi Calm Calm - N/A   Clear
3:35 AM 62.6 °F - 62.6 °F 100% 30.07 in 10.0 mi Calm Calm - N/A   Clear
3:40 AM 62.6 °F - 62.6 °F 100% 30.08 in 10.0 mi Calm Calm - N/A   Clear
3:55 AM 62.6 °F - 62.6 °F 100% 30.08 in 10.0 mi Calm Calm - N/A   Clear
4:00 AM 62.6 °F - 62.6 °F 100% 30.08 in 10.0 mi Calm Calm - N/A   Clear
4:15 AM 62.6 °F - 62.6 °F 100% 30.08 in 10.0 mi Calm Calm - N/A   Clear
4:20 AM 62.6 °F - 62.6 °F 100% 30.08 in 10.0 mi Calm Calm - N/A   Clear
4:35 AM 62.6 °F - 62.6 °F 100% 30.08 in 10.0 mi Calm Calm - N/A   Clear
4:55 AM 62.6 °F - 62.6 °F 100% 30.09 in 10.0 mi Calm Calm - N/A   Clear
5:00 AM 62.6 °F - 62.6 °F 100% 30.09 in 10.0 mi Calm Calm - N/A   Clear
5:15 AM 62.6 °F - 62.6 °F 100% 30.09 in 10.0 mi Calm Calm - N/A   Clear
5:20 AM 62.6 °F - 62.6 °F 100% 30.09 in 10.0 mi Calm Calm - N/A   Clear
5:35 AM 62.6 °F - 62.6 °F 100% 30.09 in 10.0 mi Calm Calm - N/A   Clear
5:40 AM 62.6 °F - 62.6 °F 100% 30.09 in 10.0 mi Calm Calm - N/A   Clear
5:55 AM 60.8 °F - 60.8 °F 100% 30.10 in 10.0 mi Calm Calm - N/A   Clear
6:00 AM 60.8 °F - 60.8 °F 100% 30.10 in 10.0 mi Calm Calm - N/A   Clear
6:15 AM 62.6 °F - 62.6 °F 100% 30.10 in 10.0 mi Calm Calm - N/A   Clear
6:35 AM 62.6 °F - 62.6 °F 100% 30.10 in 10.0 mi Calm Calm - N/A   Clear
6:40 AM 64.4 °F - 62.6 °F 94% 30.10 in 10.0 mi Calm Calm - N/A   Clear
6:55 AM 64.4 °F - 64.4 °F 100% 30.10 in 10.0 mi Calm Calm - N/A   Clear
7:00 AM 66.2 °F - 64.4 °F 94% 30.11 in 10.0 mi Calm Calm - N/A   Clear
7:15 AM 68.0 °F - 64.4 °F 88% 30.11 in 10.0 mi Calm Calm - N/A   Clear
7:20 AM 68.0 °F - 64.4 °F 88% 30.11 in 10.0 mi Calm Calm - N/A   Clear
7:35 AM 69.8 °F - 66.2 °F 88% 30.11 in 10.0 mi Calm Calm - N/A   Clear
7:40 AM 69.8 °F - 66.2 °F 88% 30.11 in 10.0 mi Calm Calm - N/A   Clear
7:55 AM 71.6 °F - 66.2 °F 83% 30.11 in 10.0 mi Calm Calm - N/A   Clear
8:15 AM 73.4 °F - 64.4 °F 73% 30.11 in 10.0 mi Calm Calm - N/A   Clear
8:20 AM 73.4 °F - 64.4 °F 73% 30.11 in 10.0 mi Calm Calm - N/A   Clear
8:35 AM 75.2 °F - 66.2 °F 73% 30.12 in 10.0 mi Calm Calm - N/A   Clear
8:40 AM 77.0 °F - 66.2 °F 69% 30.12 in 10.0 mi Calm Calm - N/A   Clear
8:55 AM 77.0 °F - 66.2 °F 69% 30.12 in 10.0 mi Calm Calm - N/A   Clear
9:00 AM 77.0 °F - 66.2 °F 69% 30.12 in 10.0 mi WSW 4.6 mph - N/A   Clear
9:15 AM 78.8 °F - 68.0 °F 69% 30.12 in 10.0 mi SW 4.6 mph - N/A   Clear
9:20 AM 78.8 °F - 68.0 °F 69% 30.12 in 10.0 mi SW 5.8 mph - N/A   Clear
9:35 AM 78.8 °F - 68.0 °F 69% 30.12 in 10.0 mi SW 4.6 mph - N/A   Clear
9:55 AM 80.6 °F 83.2 °F 68.0 °F 65% 30.12 in 10.0 mi Variable 5.8 mph - N/A   Clear
10:00 AM 80.6 °F 83.2 °F 68.0 °F 65% 30.12 in 10.0 mi SW 6.9 mph - N/A   Clear
10:15 AM 82.4 °F 85.4 °F 68.0 °F 62% 30.12 in 10.0 mi WSW 6.9 mph - N/A   Clear
10:20 AM 82.4 °F 85.4 °F 68.0 °F 62% 30.12 in 10.0 mi SW 5.8 mph - N/A   Clear
10:35 AM 82.4 °F 85.4 °F 68.0 °F 62% 30.12 in 10.0 mi Variable 4.6 mph 11.5 mph N/A   Clear
10:40 AM 82.4 °F 86.3 °F 69.8 °F 66% 30.12 in 10.0 mi Variable 6.9 mph - N/A   Clear
10:55 AM 82.4 °F 85.4 °F 68.0 °F 62% 30.11 in 10.0 mi SW 9.2 mph - N/A   Clear
11:00 AM 84.2 °F 87.3 °F 68.0 °F 58% 30.11 in 10.0 mi WSW 8.1 mph - N/A   Clear
11:15 AM 84.2 °F 87.3 °F 68.0 °F 58% 30.11 in 10.0 mi Variable 5.8 mph 12.7 mph N/A   Clear
11:35 AM 84.2 °F 87.3 °F 68.0 °F 58% 30.11 in 10.0 mi Variable 6.9 mph - N/A   Clear
11:40 AM 86.0 °F 89.4 °F 68.0 °F 55% 30.10 in 10.0 mi Variable 4.6 mph 11.5 mph N/A   Clear
11:55 AM 86.0 °F 89.4 °F 68.0 °F 55% 30.10 in 10.0 mi Variable 6.9 mph 13.8 mph N/A   Clear
12:00 PM 86.0 °F 89.4 °F 68.0 °F 55% 30.10 in 10.0 mi WSW 8.1 mph - N/A   Clear
12:15 PM 86.0 °F 89.4 °F 68.0 °F 55% 30.10 in 10.0 mi SW 6.9 mph - N/A   Clear
12:20 PM 86.0 °F 89.4 °F 68.0 °F 55% 30.10 in 10.0 mi SW 8.1 mph - N/A   Clear
12:35 PM 86.0 °F 90.4 °F 69.8 °F 58% 30.10 in 10.0 mi Variable 6.9 mph - N/A   Clear
12:40 PM 87.8 °F 92.6 °F 69.8 °F 55% 30.10 in 10.0 mi West 6.9 mph - N/A   Clear
12:55 PM 87.8 °F 91.4 °F 68.0 °F 52% 30.09 in 10.0 mi Variable 6.9 mph - N/A   Partly Cloudy
1:15 PM 87.8 °F 90.4 °F 66.2 °F 49% 30.09 in 10.0 mi Variable 5.8 mph 12.7 mph N/A   Clear
1:20 PM 87.8 °F 90.4 °F 66.2 °F 49% 30.09 in 10.0 mi SW 6.9 mph - N/A   Clear
1:35 PM 87.8 °F 90.4 °F 66.2 °F 49% 30.08 in 10.0 mi Variable 6.9 mph - N/A   Clear
1:40 PM 87.8 °F 90.4 °F 66.2 °F 49% 30.08 in 10.0 mi Variable 5.8 mph - N/A   Clear
1:55 PM 87.8 °F 90.4 °F 66.2 °F 49% 30.08 in 10.0 mi SW 6.9 mph - N/A   Clear
2:00 PM 87.8 °F 90.4 °F 66.2 °F 49% 30.07 in 10.0 mi SW 5.8 mph - N/A   Clear
2:15 PM 89.6 °F 92.2 °F 66.2 °F 46% 30.07 in 10.0 mi SW 6.9 mph - N/A   Clear
2:20 PM 89.6 °F 92.2 °F 66.2 °F 46% 30.06 in 10.0 mi Variable 4.6 mph 11.5 mph N/A   Clear
2:35 PM 89.6 °F 93.4 °F 68.0 °F 49% 30.06 in 10.0 mi SSW 5.8 mph - N/A   Clear
2:55 PM 89.6 °F 93.4 °F 68.0 °F 49% 30.06 in 10.0 mi SW 6.9 mph - N/A   Clear
3:00 PM 89.6 °F 93.4 °F 68.0 °F 49% 30.06 in 10.0 mi SW 6.9 mph - N/A   Clear
3:15 PM 89.6 °F 93.4 °F 68.0 °F 49% 30.05 in 10.0 mi SSW 6.9 mph - N/A   Clear
3:20 PM 89.6 °F 93.4 °F 68.0 °F 49% 30.05 in 10.0 mi Variable 6.9 mph - N/A   Clear
3:35 PM 89.6 °F 92.2 °F 66.2 °F 46% 30.04 in 10.0 mi SSW 8.1 mph - N/A   Clear
3:40 PM 89.6 °F 93.4 °F 68.0 °F 49% 30.04 in 10.0 mi WSW 6.9 mph - N/A   Clear
3:55 PM 89.6 °F 93.4 °F 68.0 °F 49% 30.04 in 10.0 mi Variable 4.6 mph - N/A   Clear
4:00 PM 89.6 °F 93.4 °F 68.0 °F 49% 30.04 in 10.0 mi WSW 5.8 mph - N/A   Clear
4:15 PM 89.6 °F 93.4 °F 68.0 °F 49% 30.04 in 10.0 mi WSW 6.9 mph - N/A   Clear
4:35 PM 89.6 °F 94.7 °F 69.8 °F 52% 30.04 in 10.0 mi Variable 6.9 mph - N/A   Clear
4:40 PM 89.6 °F 94.7 °F 69.8 °F 52% 30.04 in 10.0 mi SW 6.9 mph - N/A   Clear
4:55 PM 89.6 °F 93.4 °F 68.0 °F 49% 30.04 in 10.0 mi SSW 9.2 mph - N/A   Clear
5:00 PM 89.6 °F 94.7 °F 69.8 °F 52% 30.04 in 10.0 mi WSW 8.1 mph - N/A   Clear
5:15 PM 89.6 °F 94.7 °F 69.8 °F 52% 30.03 in 10.0 mi Variable 4.6 mph - N/A   Clear
5:20 PM 87.8 °F 92.6 °F 69.8 °F 55% 30.03 in 10.0 mi SW 5.8 mph - N/A   Clear
5:35 PM 87.8 °F 92.6 °F 69.8 °F 55% 30.03 in 10.0 mi SSW 6.9 mph - N/A   Clear
5:40 PM 87.8 °F 92.6 °F 69.8 °F 55% 30.03 in 10.0 mi SSW 8.1 mph - N/A   Clear
5:55 PM 89.6 °F 94.7 °F 69.8 °F 52% 30.03 in 10.0 mi SW 4.6 mph - N/A   Clear
6:15 PM 87.8 °F 92.6 °F 69.8 °F 55% 30.03 in 10.0 mi Variable 4.6 mph - N/A   Clear
6:20 PM 87.8 °F 92.6 °F 69.8 °F 55% 30.03 in 9.0 mi SW 5.8 mph - N/A   Clear
6:35 PM 87.8 °F 92.6 °F 69.8 °F 55% 30.04 in 9.0 mi Calm Calm - N/A   Clear
6:40 PM 86.0 °F 90.4 °F 69.8 °F 58% 30.04 in 9.0 mi SSW 4.6 mph - N/A   Clear
6:55 PM 86.0 °F 90.4 °F 69.8 °F 58% 30.04 in 9.0 mi Calm Calm - N/A   Clear
7:00 PM 86.0 °F 91.8 °F 71.6 °F 62% 30.04 in 10.0 mi Calm Calm - N/A   Clear
7:15 PM 86.0 °F 91.8 °F 71.6 °F 62% 30.03 in 9.0 mi Calm Calm - N/A   Clear
7:20 PM 84.2 °F 89.6 °F 71.6 °F 66% 30.03 in 8.0 mi Calm Calm - N/A   Clear
7:35 PM 84.2 °F 89.6 °F 71.6 °F 66% 30.03 in 9.0 mi SSW 3.5 mph - N/A   Clear
7:55 PM 84.2 °F 89.6 °F 71.6 °F 66% 30.03 in 10.0 mi Calm Calm - N/A   Clear
8:00 PM 84.2 °F 89.6 °F 71.6 °F 66% 30.04 in 9.0 mi Calm Calm - N/A   Clear
8:15 PM 82.4 °F 87.2 °F 71.6 °F 70% 30.04 in 10.0 mi Calm Calm - N/A   Clear
8:20 PM 82.4 °F 87.2 °F 71.6 °F 70% 30.04 in 10.0 mi WSW 4.6 mph - N/A   Clear
8:35 PM 82.4 °F 86.3 °F 69.8 °F 66% 30.06 in 10.0 mi WSW 10.4 mph - N/A   Mostly Cloudy
8:40 PM 80.6 °F 83.9 °F 69.8 °F 70% 30.07 in 10.0 mi WSW 17.3 mph 24.2 mph N/A   Mostly Cloudy
8:55 PM 73.4 °F - 71.6 °F 94% 30.07 in 3.0 mi WSW 8.1 mph 16.1 mph 0.08 in   Mostly Cloudy
9:00 PM 73.4 °F - 71.6 °F 94% 30.06 in 5.0 mi SW 4.6 mph 13.8 mph N/A   Mostly Cloudy
9:15 PM 73.4 °F - 71.6 °F 94% 30.06 in 10.0 mi Calm Calm - N/A   Mostly Cloudy
9:35 PM 73.4 °F - 71.6 °F 94% 30.06 in 10.0 mi Calm Calm - N/A   Partly Cloudy
9:40 PM 73.4 °F - 71.6 °F 94% 30.06 in 10.0 mi Calm Calm - N/A   Partly Cloudy
9:55 PM 73.4 °F - 71.6 °F 94% 30.06 in 10.0 mi Calm Calm - 0.01 in   Clear
10:00 PM 73.4 °F - 71.6 °F 94% 30.06 in 10.0 mi Calm Calm - N/A   Clear
10:15 PM 71.6 °F - 71.6 °F 100% 30.06 in 10.0 mi Calm Calm - N/A   Clear
10:20 PM 71.6 °F - 71.6 °F 100% 30.07 in 10.0 mi Calm Calm - N/A   Clear
10:35 PM 71.6 °F - 71.6 °F 100% 30.07 in 10.0 mi Calm Calm - N/A   Clear
10:40 PM 71.6 °F - 71.6 °F 100% 30.07 in 10.0 mi Calm Calm - N/A   Clear
10:55 PM 71.6 °F - 71.6 °F 100% 30.06 in 10.0 mi Calm Calm - N/A   Partly Cloudy
11:15 PM 71.6 °F - 71.6 °F 100% 30.06 in 10.0 mi Calm Calm - N/A   Clear
11:20 PM 71.6 °F - 71.6 °F 100% 30.06 in 10.0 mi Calm Calm - N/A   Clear
11:35 PM 71.6 °F - 71.6 °F 100% 30.05 in 10.0 mi Calm Calm - N/A   Clear
11:40 PM 71.6 °F - 71.6 °F 100% 30.05 in 10.0 mi Calm Calm - N/A   Clear
11:55 PM 71.6 °F - 71.6 °F 100% 30.05 in 10.0 mi Calm Calm - N/A   Scattered Clouds